Date String (YYYY-MM-DD hh:mm:ss) UTC,Instrument flags,absolute air pressure of the measurement (hPa),sample flow rate (lpm),inlet stack bypass flow (lpm),air temperature of the measurement (°C),ambient temperature measured by the external sensor (°C),aerosol sample conditioner tube jacket temperature (°C),OPC LED temperature (°C),internal box temperature (°C),relative humidity of the measurement (%),span deviation,mass concentration of particles derived from Lorenz-Mie calculation of OPC scattering (μg/m³),mass concentration of particles derived from Lorenz-Mie calculation of OPC scattering (μg/m³),mass concentration of particles derived from Lorenz-Mie calculation of OPC scattering (μg/m³)
DateTimeUTC,F1_M11,P_M11,Q1_M11,Q2_M11,T1_M11,T2_M11,T3_M11,T4_M11,T5_M11,U1_M11,ZSPAN_M11,X0_M11,X2_M11,X1_M11
2024-03-05 10:00:00,SystemResetWarning,0826.6,5.00,000.00,018.4,017.9,000.0,026.9,020.0,14.8,0000.0,0006.61,0001.19,0000.73
2024-03-05 10:01:00,SystemResetWarning,0826.7,5.01,000.00,018.4,017.8,000.0,026.9,020.0,14.8,0000.0,0004.99,0001.20,0000.74
2024-03-05 10:02:00,SystemResetWarning,0826.6,5.00,000.00,018.4,017.7,000.0,027.0,020.0,14.8,0000.0,0005.29,0001.24,0000.75
2024-03-05 10:03:00,SystemResetWarning,0826.7,5.00,000.00,018.3,017.6,000.0,027.0,020.0,14.8,0000.0,0007.36,0001.30,0000.75
2024-03-05 10:04:00,SystemResetWarning,0826.6,5.00,000.00,018.3,017.5,000.0,027.0,020.0,14.8,0000.0,0007.82,0001.26,0000.74
2024-03-05 10:05:00,SystemResetWarning,0826.6,5.00,000.00,018.3,017.5,000.0,027.0,020.0,14.7,0000.0,0007.85,0001.28,0000.75
2024-03-05 10:06:00,SystemResetWarning,0826.6,5.00,000.00,018.3,017.4,000.0,027.0,020.0,14.7,0000.0,0007.98,0001.30,0000.76
2024-03-05 10:07:00,SystemResetWarning,0826.6,5.00,000.00,018.2,017.4,000.0,027.0,020.0,14.6,0000.0,0008.07,0001.37,0000.77
2024-03-05 10:08:00,SystemResetWarning,0826.8,5.00,000.00,018.2,017.3,000.0,027.0,020.0,14.6,0000.0,0007.99,0001.42,0000.78
2024-03-05 10:09:00,SystemResetWarning,0826.8,5.00,000.00,018.2,017.3,000.0,027.0,020.0,14.6,0000.0,0007.99,0001.42,0000.79
2024-03-05 10:10:00,SystemResetWarning,0826.7,5.00,000.00,018.2,017.3,000.0,027.0,020.0,14.7,0000.0,0008.03,0001.45,0000.80
2024-03-05 10:11:00,SystemResetWarning,0826.6,5.01,000.00,018.3,017.7,000.0,027.1,020.2,14.6,0000.0,0007.90,0001.46,0000.82
2024-03-05 10:12:00,SystemResetWarning,0826.6,5.00,000.00,018.5,018.5,000.0,027.1,020.7,14.3,0000.0,0007.95,0001.49,0000.83
2024-03-05 10:13:00,SystemResetWarning,0826.6,4.99,000.00,018.7,019.1,000.0,027.2,021.0,14.1,0000.0,0007.57,0001.49,0000.83
2024-03-05 10:14:00,SystemResetWarning,0826.7,4.99,000.00,018.8,019.0,000.0,027.1,020.9,14.0,0000.0,0005.98,0001.42,0000.83
2024-03-05 10:15:00,SystemResetWarning,0826.7,5.00,000.00,018.7,018.7,000.0,027.1,020.6,14.0,0000.0,0005.86,0001.41,0000.83
2024-03-05 10:16:00,SystemResetWarning,0826.6,5.02,000.00,018.7,018.5,000.0,027.0,020.4,14.0,0000.0,0005.84,0001.39,0000.83
2024-03-05 10:17:00,SystemResetWarning,0826.6,4.99,000.00,018.6,018.3,000.0,027.0,020.3,14.0,0000.0,0005.76,0001.37,0000.82
2024-03-05 10:18:00,SystemResetWarning,0826.6,5.00,000.00,018.6,018.1,000.0,027.0,020.2,14.0,0000.0,0005.12,0001.35,0000.82
2024-03-05 10:19:00,SystemResetWarning,0826.6,5.01,000.00,018.5,017.9,000.0,026.9,020.1,14.0,0000.0,0004.89,0001.31,0000.80
2024-03-05 10:20:00,SystemResetWarning,0826.7,5.01,000.00,018.4,017.8,000.0,026.9,020.0,14.1,0000.0,0005.26,0001.29,0000.79
2024-03-05 10:21:00,SystemResetWarning,0826.8,5.00,000.00,018.4,017.7,000.0,027.0,020.0,14.1,0000.0,0006.34,0001.25,0000.78
2024-03-05 10:22:00,SystemResetWarning,0826.8,5.00,000.00,018.4,017.7,000.0,027.0,020.0,14.1,0000.0,0006.35,0001.21,0000.76
2024-03-05 10:23:00,SystemResetWarning,0826.7,5.00,000.00,018.3,017.6,000.0,027.0,020.0,14.1,0000.0,0007.08,0001.19,0000.75
2024-03-05 10:24:00,SystemResetWarning,0826.6,5.00,000.00,018.3,017.6,000.0,027.0,020.0,14.1,0000.0,0007.28,0001.19,0000.74
2024-03-05 10:25:00,SystemResetWarning,0826.6,4.99,000.00,018.3,017.6,000.0,027.0,020.0,14.0,0000.0,0007.22,0001.20,0000.73
2024-03-05 10:26:00,SystemResetWarning,0826.6,4.99,000.00,018.3,017.5,000.0,027.0,020.0,14.0,0000.0,0005.99,0001.18,0000.72
2024-03-05 10:27:00,SystemResetWarning,0826.7,5.00,000.00,018.3,017.5,000.0,027.0,020.0,14.0,0000.0,0005.85,0001.20,0000.72
2024-03-05 10:28:00,SystemResetWarning,0826.7,5.01,000.00,018.3,017.5,000.0,027.0,020.0,14.0,0000.0,0005.79,0001.18,0000.71
2024-03-05 10:29:00,SystemResetWarning,0826.7,5.01,000.00,018.2,017.5,000.0,027.0,020.0,14.1,0000.0,0006.04,0001.13,0000.68
2024-03-05 10:30:00,SystemResetWarning,0826.6,5.01,000.00,018.3,017.5,000.0,027.0,020.0,14.2,0000.0,0005.97,0001.10,0000.67
2024-03-05 10:31:00,SystemResetWarning,0826.6,4.99,000.00,018.2,017.4,000.0,027.0,020.0,14.2,0000.0,0006.01,0001.07,0000.66
2024-03-05 10:32:00,SystemResetWarning,0826.6,4.99,000.00,018.2,017.4,000.0,027.0,020.0,14.2,0000.0,0006.26,0001.05,0000.64
2024-03-05 10:33:00,SystemResetWarning,0826.6,5.01,000.00,018.2,017.4,000.0,027.0,020.0,14.3,0000.0,0006.35,0001.02,0000.64
2024-03-05 10:34:00,SystemResetWarning,0826.6,5.00,000.00,018.2,017.4,000.0,027.0,020.0,14.3,0000.0,0006.16,0001.00,0000.63
2024-03-05 10:35:00,SystemResetWarning,0826.6,5.01,000.00,018.2,017.4,000.0,027.0,020.0,14.3,0000.0,0007.31,0000.98,0000.62
2024-03-05 10:36:00,SystemResetWarning,0826.6,5.00,000.00,018.2,017.4,000.0,027.0,020.0,14.3,0000.0,0007.33,0000.92,0000.60
2024-03-05 10:37:00,SystemResetWarning,0826.6,5.00,000.00,018.2,017.4,000.0,027.0,020.0,14.3,0000.0,0007.61,0000.93,0000.60
2024-03-05 10:38:00,SystemResetWarning,0826.6,5.00,000.00,018.2,017.6,000.0,027.0,020.1,14.3,0000.0,0007.64,0000.91,0000.59
2024-03-05 10:39:00,SystemResetWarning,0826.6,5.01,000.00,018.4,018.4,000.0,027.1,020.6,14.2,0000.0,0007.58,0000.89,0000.59
2024-03-05 10:40:00,SystemResetWarning,0826.7,4.99,000.00,018.6,019.1,000.0,027.1,021.0,14.1,0000.0,0007.20,0000.87,0000.59
2024-03-05 10:41:00,SystemResetWarning,0826.7,4.99,000.00,018.8,019.1,000.0,027.1,020.9,14.0,0000.0,0007.23,0000.87,0000.58
2024-03-05 10:42:00,SystemResetWarning,0826.7,5.00,000.00,018.8,018.9,000.0,027.0,020.7,14.0,0000.0,0006.89,0000.86,0000.58
2024-03-05 10:43:00,SystemResetWarning,0826.8,5.02,000.00,018.7,018.7,000.0,027.0,020.5,14.0,0000.0,0005.20,0000.85,0000.57
2024-03-05 10:44:00,SystemResetWarning,0826.8,4.99,000.00,018.7,018.5,000.0,027.0,020.4,14.0,0000.0,0006.01,0000.87,0000.56
2024-03-05 10:45:00,SystemResetWarning,0826.9,5.00,000.00,018.7,018.4,000.0,027.0,020.3,14.0,0000.0,0005.57,0000.85,0000.55
2024-03-05 10:46:00,SystemResetWarning,0826.9,5.00,000.00,018.6,018.2,000.0,027.0,020.3,14.1,0000.0,0003.93,0000.79,0000.54
2024-03-05 10:47:00,SystemResetWarning,0826.9,5.00,000.00,018.6,018.1,000.0,027.0,020.3,14.1,0000.0,0004.25,0000.82,0000.55
2024-03-05 10:48:00,SystemResetWarning,0826.8,5.01,000.00,018.5,018.0,000.0,027.0,020.2,14.1,0000.0,0005.02,0000.82,0000.55
2024-03-05 10:49:00,SystemResetWarning,0826.7,5.01,000.00,018.5,018.0,000.0,027.0,020.1,14.2,0000.0,0005.13,0000.82,0000.55
2024-03-05 10:50:00,SystemResetWarning,0826.7,5.00,000.00,018.5,017.9,000.0,027.0,020.1,14.2,0000.0,0005.40,0000.89,0000.55
2024-03-05 10:51:00,SystemResetWarning,0826.6,4.97,000.00,018.4,017.8,000.0,027.0,020.1,14.2,0000.0,0005.69,0000.94,0000.56
2024-03-05 10:52:00,SystemResetWarning,0826.7,5.00,000.00,018.4,017.8,000.0,026.9,020.1,14.2,0000.0,0006.71,0001.00,0000.58
2024-03-05 10:53:00,SystemResetWarning,0826.8,5.01,000.00,018.4,017.8,000.0,026.9,020.1,14.1,0000.0,0007.30,0001.04,0000.58
2024-03-05 10:54:00,SystemResetWarning,0826.8,5.01,000.00,018.4,017.8,000.0,026.9,020.1,14.1,0000.0,0007.34,0001.04,0000.58
2024-03-05 10:55:00,SystemResetWarning,0826.9,4.99,000.00,018.3,017.7,000.0,026.9,020.0,14.1,0000.0,0006.21,0001.10,0000.60
2024-03-05 10:56:00,SystemResetWarning,0826.9,4.99,000.00,018.3,017.7,000.0,026.9,020.0,14.1,0000.0,0006.01,0001.14,0000.61
2024-03-05 10:57:00,SystemResetWarning,0826.8,5.00,000.00,018.3,017.7,000.0,026.9,020.0,14.0,0000.0,0006.24,0001.22,0000.63
2024-03-05 10:58:00,SystemResetWarning,0826.7,5.01,000.00,018.3,017.7,000.0,026.9,020.0,13.9,0000.0,0006.20,0001.22,0000.63
2024-03-05 10:59:00,SystemResetWarning,0826.8,5.00,000.00,018.3,017.7,000.0,026.9,020.0,13.9,0000.0,0004.75,0001.20,0000.63
